H1 CPF 2 NER 2023 7 21 9 202 01 glonass143 H2 2007501 9143 46805 2023 7 21 0 0 0 2023 7 24 23 45 0 900 1 1 0 0 0 1 H9 10 0 60146 0.00000 0 7212585.555 -24314847.049 -2805812.160 10 0 60146 900.00000 0 7118636.273 -24502475.946 399645.152 10 0 60146 1800.00000 0 6917978.621 -24300109.577 3597350.068 10 0 60146 2700.00000 0 6665417.449 -23700484.998 6725271.182 10 0 60146 3600.00000 0 6416621.961 -22709596.986 9722754.935 10 0 60146 4500.00000 0 6225550.626 -21346545.579 12531697.229 10 0 60146 5400.00000 0 6141957.675 -19642853.695 15097663.819 10 0 60146 6300.00000 0 6209086.350 -17641283.384 17370938.259 10 0 60146 7200.00000 0 6461646.082 -15394200.000 19307477.714 10 0 60146 8100.00000 0 6924158.633 -12961552.107 20869758.943 10 0 60146 9000.00000 0 7609742.836 -10408550.551 22027498.927 10 0 60146 9900.00000 0 8519389.237 -7803142.372 22758236.985 10 0 60146 10800.00000 0 9641755.590 -5213383.421 23047767.788 10 0 60146 11700.00000 0 10953492.694 -2704817.546 22890417.340 10 0 60146 12600.00000 0 12420088.053 -337969.909 22289156.696 10 0 60146 13500.00000 0 13997193.460 1833942.747 21255551.019 10 0 60146 14400.00000 0 15632382.527 3766990.880 19809544.407 10 0 60146 15300.00000 0 17267266.113 5428118.635 17979083.813 10 0 60146 16200.00000 0 18839878.540 6796272.707 15799588.296 10 0 60146 17100.00000 0 20287235.782 7863027.060 13313272.724 10 0 60146 18000.00000 0 21547959.115 8632677.747 10568337.945 10 0 60146 18900.00000 0 22564854.468 9121804.121 7618042.178 10 0 60146 19800.00000 0 23287338.988 9358315.128 4519670.921 10 0 60146 20700.00000 0 23673612.163 9380021.016 1333425.065 10 0 60146 21600.00000 0 23692479.233 9232791.112 -1878751.175 10 0 60146 22500.00000 0 23324748.913 8968375.948 -5054379.379 10 0 60146 23400.00000 0 22564145.265 8641986.578 -8131668.890 10 0 60146 24300.00000 0 21417693.995 8309734.407 -11050726.985 10 0 60146 25200.00000 0 19905565.791 8026040.992 -13754732.764 10 0 60146 26100.00000 0 18060382.299 7841128.619 -16191050.937 10 0 60146 27000.00000 0 15926013.248 7798699.059 -18312263.027 10 0 60146 27900.00000 0 13555914.735 7933899.795 -20077095.315 10 0 60146 28800.00000 0 11011078.139 8271664.701 -21451225.068 10 0 60146 29700.00000 0 8357675.456 8825500.077 -22407949.267 10 0 60146 30600.00000 0 5664499.430 9596767.930 -22928702.932 10 0 60146 31500.00000 0 3000305.379 10574497.165 -23003417.236 10 0 60146 32400.00000 0 431165.384 11735730.975 -22630710.853 10 0 60146 33300.00000 0 -1982055.252 13046395.979 -21817911.275 10 0 60146 34200.00000 0 -4185994.722 14462656.660 -20580906.120 10 0 60146 35100.00000 0 -6136769.833 15932698.164 -18943827.747 10 0 60146 36000.00000 0 -7801548.395 17398862.548 -16938577.608 10 0 60146 36900.00000 0 -9159654.733 18800048.646 -14604199.943 10 0 60146 37800.00000 0 -10203163.835 20074274.667 -11986117.189 10 0 60146 38700.00000 0 -10936961.183 21161295.804 -9135242.234 10 0 60146 39600.00000 0 -11378267.631 22005166.811 -6106985.024 10 0 60146 40500.00000 0 -11555651.238 22556641.845 -2960173.104 10 0 60146 41400.00000 0 -11507569.347 22775310.779 244092.681 10 0 60146 42300.00000 0 -11280503.901 22631382.274 3443624.787 10 0 60146 43200.00000 0 -10926769.823 22107038.876 6576354.657 10 0 60146 44100.00000 0 -10502089.898 21197307.331 9581533.988 10 0 60146 45000.00000 0 -10063039.063 19910407.760 12400908.327 10 0 60146 45900.00000 0 -9664466.204 18267567.047 14979840.480 10 0 60146 46800.00000 0 -9357002.224 16302304.140 17268362.462 10 0 60146 47700.00000 0 -9184759.186 14059216.808 19222136.197 10 0 60146 48600.00000 0 -9183317.173 11592319.946 20803305.195 10 0 60146 49500.00000 0 -9378083.263 8963003.837 21981221.544 10 0 60146 50400.00000 0 -9783091.480 6237696.319 22733034.969 10 0 60146 51300.00000 0 -10400294.212 3485324.789 23044133.222 10 0 60146 52200.00000 0 -11219375.202 774682.033 22908425.765 10 0 60146 53100.00000 0 -12218092.681 -1828196.148 22328465.369 10 0 60146 54000.00000 0 -13363139.263 -4262534.091 21315405.104 10 0 60146 54900.00000 0 -14611483.791 -6475097.565 19888791.020 10 0 60146 55800.00000 0 -15912140.230 -8422159.425 18076193.700 10 0 60146 56700.00000 0 -17208290.758 -10071068.754 15912684.788 10 0 60146 57600.00000 0 -18439675.117 -11401358.705 13440167.484 10 0 60146 58500.00000 0 -19545146.744 -12405347.221 10706572.857 10 0 60146 59400.00000 0 -20465288.714 -13088205.736 7764936.635 10 0 60146 60300.00000 0 -21144979.440 -13467493.204 4672373.616 10 0 60146 61200.00000 0 -21535799.648 -13572175.202 1488969.300 10 0 60146 62100.00000 0 -21598178.355 -13441169.682 -1723389.748 10 0 60146 63000.00000 0 -21303186.185 -13121481.129 -4902223.734 10 0 60146 63900.00000 0 -20633899.030 -12666002.495 -7985681.499 10 0 60146 64800.00000 0 -19586273.094 -12131078.622 -10913751.777 10 0 60146 65700.00000 0 -18169493.013 -11573935.136 -13629439.348 10 0 60146 66600.00000 0 -16405777.154 -11050082.603 -16079882.200 10 0 60146 67500.00000 0 -14329647.212 -10610806.822 -18217387.164 10 0 60146 68400.00000 0 -11986691.969 -10300852.366 -20000363.250 10 0 60146 69300.00000 0 -9431876.542 -10156398.113 -21394134.111 10 0 60146 70200.00000 0 -6727467.508 -10203410.974 -22371613.733 10 0 60146 71100.00000 0 -3940660.447 -10456447.733 -22913832.306 10 0 60146 72000.00000 0 -1141008.758 -10917955.800 -23010302.321 10 0 60146 72900.00000 0 1602239.226 -11578102.420 -22659218.181 10 0 60146 73800.00000 0 4222784.240 -12415139.445 -21867485.873 10 0 60146 74700.00000 0 6659791.555 -13396288.148 -20650582.583 10 0 60146 75600.00000 0 8860173.905 -14479106.570 -19032249.347 10 0 60146 76500.00000 0 10780547.772 -15613281.605 -17044023.089 10 0 60146 77400.00000 0 12388782.671 -16742770.108 -14724617.400 10 0 60146 78300.00000 0 13665080.296 -17808198.635 -12119164.370 10 0 60146 79200.00000 0 14602540.083 -18749420.619 -9278332.452 10 0 60146 80100.00000 0 15207189.320 -19508123.041 -6257337.743 10 0 60146 81000.00000 0 15497478.406 -20030372.783 -3114868.213 10 0 60146 81900.00000 0 15503264.255 -20268995.289 88057.989 10 0 60146 82800.00000 0 15264326.222 -20185685.388 3289277.652 10 0 60146 83700.00000 0 14828478.484 -19752761.428 6426687.848 10 0 60146 84600.00000 0 14249359.490 -18954488.953 9439447.999 10 0 60146 85500.00000 0 13583992.426 -17787918.269 12269155.387 10 0 60147 0.00000 0 12890220.017 -16263200.810 14860971.330 10 0 60147 900.00000 0 12224121.442 -14403369.858 17164678.018 10 0 60147 1800.00000 0 11637520.911 -12243596.535 19135642.713 10 0 60147 2700.00000 0 11175691.111 -9829948.713 20735676.061 10 0 60147 3600.00000 0 10875348.553 -7217705.658 21933765.253 10 0 60147 4500.00000 0 10763024.227 -4469296.688 22706670.031 10 0 60147 5400.00000 0 10853877.721 -1651948.339 23039370.514 10 0 60147 6300.00000 0 11151004.488 1164863.762 22925358.618 10 0 60147 7200.00000 0 11645265.514 3912054.040 22366767.579 10 0 60147 8100.00000 0 12315647.059 6523549.134 21374336.940 10 0 60147 9000.00000 0 13130136.173 8938785.670 19967213.123 10 0 60147 9900.00000 0 14047076.251 11104981.003 18172588.665 10 0 60147 10800.00000 0 15016946.797 12979083.531 16025186.037 10 0 60147 11700.00000 0 15984493.686 14529321.992 13566594.945 10 0 60147 12600.00000 0 16891121.162 15736289.547 10844474.803 10 0 60147 13500.00000 0 17677445.460 16593517.567 7911636.896 10 0 60147 14400.00000 0 18285902.620 17107515.200 4825023.313 10 0 60147 15300.00000 0 18663300.219 17297273.112 1644602.096 10 0 60147 16200.00000 0 18763204.661 17193252.396 -1567799.938 10 0 60147 17100.00000 0 18548062.153 16835901.494 -4749703.713 10 0 60147 18000.00000 0 17990962.447 16273764.083 -7839199.591 10 0 60147 18900.00000 0 17076969.385 15561258.441 -10776159.686 10 0 60147 19800.00000 0 15803960.530 14756222.867 -13503416.220 10 0 60147 20700.00000 0 14182938.984 13917331.797 -15967882.057 10 0 60147 21600.00000 0 12237802.947 13101492.728 -18121590.756 10 0 60147 22500.00000 0 10004581.551 12361334.817 -19922635.319 10 0 60147 23400.00000 0 7530168.176 11742895.985 -21335986.908 10 0 60147 24300.00000 0 4870603.656 11283606.673 -22334177.507 10 0 60147 25200.00000 0 2088980.707 11010655.652 -22897833.340 10 0 60147 26100.00000 0 -746943.240 10939806.833 -23016048.910 10 0 60147 27000.00000 0 -3567325.530 11074716.783 -22686594.812 10 0 60147 27900.00000 0 -6302902.944 11406781.351 -21915955.711 10 0 60147 28800.00000 0 -8887630.982 11915517.371 -20719198.185 10 0 60147 29700.00000 0 -11261188.432 12569462.801 -19119671.405 10 0 60147 30600.00000 0 -13371243.740 13327556.802 -17148546.826 10 0 60147 31500.00000 0 -15175389.690 14140941.018 -14844206.095 10 0 60147 32400.00000 0 -16642666.922 14955105.646 -12251489.360 10 0 60147 33300.00000 0 -17754614.112 15712289.330 -9420818.783 10 0 60147 34200.00000 0 -18505802.419 16354031.318 -6407214.580 10 0 60147 35100.00000 0 -18903833.527 16823767.922 -3269222.967 10 0 60147 36000.00000 0 -18968803.045 17069363.521 -67777.104 10 0 60147 36900.00000 0 -18732253.414 17045469.227 3134986.523 10 0 60147 37800.00000 0 -18235661.837 16715609.661 6276933.085 10 0 60147 38700.00000 0 -17528528.032 16053909.819 9297132.276 10 0 60147 39600.00000 0 -16666143.253 15046389.268 12137035.712 10 0 60147 40500.00000 0 -15707135.022 13691769.067 14741606.276 10 0 60147 41400.00000 0 -14710891.135 12001757.226 17060377.975 10 0 60147 42300.00000 0 -13734971.152 10000800.256 19048426.364 10 0 60147 43200.00000 0 -12832613.797 7725310.480 20667231.535 10 0 60147 44100.00000 0 -12050444.365 5222400.359 21885417.834 10 0 60147 45000.00000 0 -11426477.707 2548175.409 22679356.783 10 0 60147 45900.00000 0 -10988499.916 -234344.721 23033622.255 10 0 60147 46800.00000 0 -10752896.078 -3057592.178 22941289.590 10 0 60147 47700.00000 0 -10723972.945 -5852007.226 22404073.018 10 0 60147 48600.00000 0 -10893804.957 -8548680.482 21432298.595 10 0 60147 49500.00000 0 -11242610.358 -11081972.903 20044712.661 10 0 60147 50400.00000 0 -11739642.174 -13392005.965 18268128.747 10 0 60147 51300.00000 0 -12344557.398 -15426919.554 16136918.721 10 0 60147 52200.00000 0 -13009207.602 -17144804.313 13692356.912 10 0 60147 53100.00000 0 -13679776.349 -18515228.271 10981828.795 10 0 60147 54000.00000 0 -14299173.932 -19520294.179 8057918.613 10 0 60147 54900.00000 0 -14809588.621 -20155183.290 4977392.874 10 0 60147 55800.00000 0 -15155086.610 -20428162.674 1800099.096 10 0 60147 56700.00000 0 -15284150.245 -20360055.696 -1412198.863 10 0 60147 57600.00000 0 -15152046.333 -19983197.934 -4597025.945 10 0 60147 58500.00000 0 -14722923.103 -19339922.726 -7692417.395 10 0 60147 59400.00000 0 -13971545.750 -18480640.587 -10638132.056 10 0 60147 60300.00000 0 -12884595.580 -17461594.114 -13376832.888 10 0 60147 61200.00000 0 -11461476.348 -16342383.890 -15855210.763 10 0 60147 62100.00000 0 -9714592.241 -15183370.613 -18025028.861 10 0 60147 63000.00000 0 -7669084.472 -14043063.849 -19844066.689 10 0 60147 63900.00000 0 -5362036.372 -12975608.267 -21276944.961 10 0 60147 64800.00000 0 -2841179.447 -12028473.794 -22295815.139 10 0 60147 65700.00000 0 -163153.793 -11240447.256 -22880900.335 10 0 60147 66600.00000 0 2608604.901 -10640010.033 -23020877.284 10 0 60147 67500.00000 0 5406264.032 -10244169.724 -22713092.387 10 0 60147 68400.00000 0 8160178.803 -10057794.405 -21963608.039 10 0 60147 69300.00000 0 10801555.682 -10073476.745 -20787078.763 10 0 60147 70200.00000 0 13265084.110 -10271932.840 -19206459.994 10 0 60147 71100.00000 0 15491427.476 -10622918.008 -17252555.451 10 0 60147 72000.00000 0 17429470.227 -11086620.026 -14963412.220 10 0 60147 72900.00000 0 19038228.389 -11615470.222 -12383575.558 10 0 60147 73800.00000 0 20288344.814 -12156295.210 -9563218.096 10 0 60147 74700.00000 0 21163107.958 -12652717.825 -6557160.681 10 0 60147 75600.00000 0 21658952.965 -13047705.321 -3423804.119 10 0 60147 76500.00000 0 21785425.544 -13286156.833 -223992.861 10 0 60147 77400.00000 0 21564611.658 -13317420.510 2980166.990 10 0 60147 78300.00000 0 21030058.377 -13097633.869 6126512.181 10 0 60147 79200.00000 0 20225232.464 -12591788.441 9154025.841 10 0 60147 80100.00000 0 19201582.474 -11775431.556 12004016.669 10 0 60147 81000.00000 0 18016286.508 -10635933.402 14621251.160 10 0 60147 81900.00000 0 16729780.552 -9173265.777 16955017.352 10 0 60147 82800.00000 0 15403171.222 -7400259.363 18960100.062 10 0 60147 83700.00000 0 14095641.138 -5342328.049 20597649.518 10 0 60147 84600.00000 0 12861955.124 -3036670.819 21835927.427 10 0 60147 85500.00000 0 11750171.000 -530983.321 22650916.829 10 0 60148 0.00000 0 10799650.052 2118268.427 23026784.658 10 0 60148 900.00000 0 10039449.206 4847943.468 22956188.687 10 0 60148 1800.00000 0 9487162.802 7590601.512 22440422.681 10 0 60148 2700.00000 0 9148260.305 10277066.485 21489397.509 10 0 60148 3600.00000 0 9015948.861 12839069.654 20121457.496 10 0 60148 4500.00000 0 9071565.998 15211865.298 18363035.034 10 0 60148 5400.00000 0 9285486.417 17336711.027 16248149.114 10 0 60148 6300.00000 0 9618505.216 19163110.323 13817756.317 10 0 60148 7200.00000 0 10023639.862 20650724.199 11118965.739 10 0 60148 8100.00000 0 10448275.386 21770872.281 8204132.090 10 0 60148 9000.00000 0 10836562.508 22507560.420 5129843.793 10 0 60148 9900.00000 0 11131967.340 22857991.470 1955825.346 10 0 60148 10800.00000 0 11279864.404 22832537.508 -1256224.791 10 0 60148 11700.00000 0 11230062.523 22454174.409 -4443837.904 10 0 60148 12600.00000 0 10939155.524 21757402.479 -7544996.289 10 0 60148 13500.00000 0 10372596.940 20786698.738 -10499347.468 10 0 60148 14400.00000 0 9506409.376 19594566.389 -13249386.838 10 0 60148 15300.00000 0 8328454.668 18239264.231 -15741584.726 10 0 60148 16200.00000 0 6839209.614 16782312.353 -17927435.123 10 0 60148 17100.00000 0 5052013.087 15285879.910 -19764405.019 10 0 60148 18000.00000 0 2992772.786 13810165.610 -21216765.466 10 0 60148 18900.00000 0 699142.839 12410881.640 -22256288.026 10 0 60148 19800.00000 0 -1780794.209 11136947.091 -22862793.154 10 0 60148 20700.00000 0 -4390286.546 10028487.796 -23024540.089 10 0 60148 21600.00000 0 -7066040.441 9115226.258 -22738451.077 10 0 60148 22500.00000 0 -9740627.456 8415328.660 -22010165.994 10 0 60148 23400.00000 0 -12345071.496 7934756.445 -20853926.741 10 0 60148 24300.00000 0 -14811508.279 7667148.639 -19292294.075 10 0 60148 25200.00000 0 -17075806.820 7594238.579 -17355702.705 10 0 60148 26100.00000 0 -19080044.158 7686786.268 -15081863.575 10 0 60148 27000.00000 0 -20774730.770 7905985.795 -12515025.224 10 0 60148 27900.00000 0 -22120694.573 8205287.364 -9705108.757 10 0 60148 28800.00000 0 -23090545.706 8532556.017 -6706733.540 10 0 60148 29700.00000 0 -23669661.950 8832475.036 -3578152.793 10 0 60148 30600.00000 0 -23856654.677 9049091.828 -380120.030 10 0 60148 31500.00000 0 -23663297.080 9128398.198 2825291.303 10 0 60148 32400.00000 0 -23113918.922 9020835.601 5975891.852 10 0 60148 33300.00000 0 -22244294.360 8683619.352 9010580.556 10 0 60148 34200.00000 0 -21100070.488 8082783.482 11870525.608 10 0 60148 35100.00000 0 -19734803.311 7194859.860 14500299.532 10 0 60148 36000.00000 0 -18207683.908 6008120.635 16848946.750 10 0 60148 36900.00000 0 -16581050.256 4523331.360 18870963.572 10 0 60148 37800.00000 0 -14917788.681 2753982.590 20527172.390 10 0 60148 38700.00000 0 -13278733.124 725989.376 21785474.018 10 0 60148 39600.00000 0 -11720170.268 -1523129.927 22621464.424 10 0 60148 40500.00000 0 -10291553.827 -3945562.691 23018904.664 10 0 60148 41400.00000 0 -9033522.536 -6484945.975 22970035.438 10 0 60148 42300.00000 0 -7976303.737 -9078474.571 22475730.368 10 0 60148 43200.00000 0 -7138568.479 -11659287.263 21545484.952 10 0 60148 44100.00000 0 -6526785.461 -14159033.808 20197240.890 10 0 60148 45000.00000 0 -6135100.525 -16510517.362 18457048.447 10 0 60148 45900.00000 0 -5945746.699 -18650303.651 16358572.369 10 0 60148 46800.00000 0 -5929967.646 -20521189.083 13942449.769 10 0 60148 47700.00000 0 -6049415.952 -22074425.314 11255511.342 10 0 60148 48600.00000 0 -6257967.571 -23271607.506 8349879.990 10 0 60148 49500.00000 0 -6503876.030 -24086147.075 5281963.568 10 0 60148 50400.00000 0 -6732175.327 -24504266.779 2111360.919 10 0 60148 51300.00000 0 -6887229.564 -24525475.882 -1100297.648 10 0 60148 52200.00000 0 -6915320.725 -24162504.886 -4290552.622 10 0 60148 53100.00000 0 -6767164.048 -23440702.179 -7397336.268 10 0 60148 54000.00000 0 -6400243.222 -22396917.756 -10360187.762 10 0 60148 54900.00000 0 -5780865.084 -21077921.060 -13121437.911 10 0 60148 55800.00000 0 -4885845.326 -19538419.780 -15627339.412 10 0 60148 56700.00000 0 -3703752.388 -17838763.474 -17829119.822 10 0 60148 57600.00000 0 -2235655.504 -16042429.137 -19683936.125 10 0 60148 58500.00000 0 -495343.969 -14213395.032 -21155711.863 10 0 60148 59400.00000 0 1490992.798 -12413513.553 -22215840.407 10 0 60148 60300.00000 0 3685612.027 -10699993.655 -22843740.766 10 0 60148 61200.00000 0 6040556.540 -9123098.497 -23027255.362 10 0 60148 62100.00000 0 8499430.467 -7724154.500 -22762882.440 10 0 60148 63000.00000 0 10999538.093 -6533954.624 -22055839.008 10 0 60148 63900.00000 0 13474296.841 -5571621.864 -20919953.529 10 0 60148 64800.00000 0 15855824.101 -4843979.383 -19377390.837 10 0 60148 65700.00000 0 18077590.281 -4345452.302 -17458214.952 10 0 60148 66600.00000 0 20077027.718 -4058503.738 -15199798.580 10 0 60148 67500.00000 0 21797986.962 -3954585.188 -12646091.025 10 0 60148 68400.00000 0 23192938.375 -3995559.744 -9846758.939 10 0 60148 69300.00000 0 24224827.633 -4135536.753 -6856216.920 10 0 60148 70200.00000 0 24868508.257 -4323039.317 -3732567.011 10 0 60148 71100.00000 0 25111692.116 -4503412.081 -536468.020 10 0 60148 72000.00000 0 24955378.988 -4621366.816 2670043.090 10 0 60148 72900.00000 0 24413748.224 -4623557.630 5824754.598 10 0 60148 73800.00000 0 23513517.979 -4461076.624 8866484.751 10 0 60148 74700.00000 0 22292799.776 -4091764.325 11736264.397 10 0 60148 75600.00000 0 20799497.069 -3482237.238 14378474.803 10 0 60148 76500.00000 0 19089315.328 -2609546.861 16741919.006 10 0 60148 77400.00000 0 17223467.073 -1462400.068 18780806.528 10 0 60148 78300.00000 0 15266167.671 -41889.124 20455633.128 10 0 60148 79200.00000 0 13282025.994 1638299.973 21733939.432 10 0 60148 80100.00000 0 11333438.147 3552210.536 22590934.561 10 0 60148 81000.00000 0 9478092.012 5662457.337 23009973.433 10 0 60148 81900.00000 0 7766685.589 7921554.276 22982879.042 10 0 60148 82800.00000 0 6240953.179 10273673.877 22510103.686 10 0 60148 83700.00000 0 4932080.718 12656767.120 21600725.939 10 0 60148 84600.00000 0 3859575.538 15004957.125 20272282.971 10 0 60148 85500.00000 0 3030637.131 17251108.586 18550440.687 10 0 60149 0.00000 0 2440054.862 19329467.089 16468507.297 10 0 60149 900.00000 0 2070636.431 21178260.350 14066797.396 10 0 60149 1800.00000 0 1894149.777 22742150.611 11391860.640 10 0 60149 2700.00000 0 1872737.774 23974439.551 8495585.235 10 0 60149 3600.00000 0 1960746.927 24838930.423 5434195.560 10 0 60149 4500.00000 0 2106892.407 25311369.927 2267161.912 10 0 60149 5400.00000 0 2256667.628 25380408.454 -943956.364 10 0 60149 6300.00000 0 2354895.815 25048037.547 -4136711.624 10 0 60149 7200.00000 0 2348314.656 24329485.472 -7248988.568 10 0 60149 8100.00000 0 2188083.428 23252574.727 -10220220.229 10 0 60149 9000.00000 0 1832105.080 21856568.184 -12992574.723 10 0 60149 9900.00000 0 1247063.517 20190552.311 -15512088.695 10 0 60149 10800.00000 0 410088.382 18311425.633 -17729724.544 10 0 60149 11700.00000 0 -690024.452 16281577.244 -19602330.235 10 0 60149 12600.00000 0 -2052089.583 14166353.294 -21093482.537 10 0 60149 13500.00000 0 -3662337.657 12031418.096 -22174197.144 10 0 60149 14400.00000 0 -5494759.080 9940120.718 -22823491.916 10 0 60149 15300.00000 0 -7511972.275 7950977.399 -23028792.528 10 0 60149 16200.00000 0 -9666580.801 6115374.922 -22786173.028 10 0 60149 17100.00000 0 -11902963.040 4475590.430 -22100427.069 10 0 60149 18000.00000 0 -14159419.988 3063209.665 -20984968.838 10 0 60149 18900.00000 0 -16370591.679 1898008.598 -19461566.059 10 0 60149 19800.00000 0 -18470041.527 987343.796 -17559910.534 10 0 60149 20700.00000 0 -20392900.824 326075.468 -15317034.905 10 0 60149 21600.00000 0 -22078463.084 -102975.375 -12776587.172 10 0 60149 22500.00000 0 -23472620.093 -328056.591 -9987977.309 10 0 60149 23400.00000 0 -24530038.065 -387043.943 -7005412.805 10 0 60149 24300.00000 0 -25215983.276 -325591.751 -3886842.134 10 0 60149 25200.00000 0 -25507721.286 -194954.494 -692826.963 10 0 60149 26100.00000 0 -25395431.718 -49572.435 2514634.684 10 0 60149 27000.00000 0 -24882601.010 55475.930 5673311.197 10 0 60149 27900.00000 0 -23985877.357 67046.380 8721942.629 10 0 60149 28800.00000 0 -22734394.621 -63582.593 11601424.960 10 0 60149 29700.00000 0 -21168594.063 -378410.680 14255950.614 10 0 60149 30600.00000 0 -19338593.580 -910703.066 16634083.539 10 0 60149 31500.00000 0 -17302172.723 -1683349.101 18689748.559 10 0 60149 32400.00000 0 -15122457.509 -2707661.600 20383116.608 10 0 60149 33300.00000 0 -12865401.107 -3982667.667 21681369.590 10 0 60149 34200.00000 0 -10597164.696 -5494921.447 22559330.840 10 0 60149 35100.00000 0 -8381506.558 -7218847.678 22999949.790 10 0 60149 36000.00000 0 -6277286.970 -9117602.949 22994631.960 10 0 60149 36900.00000 0 -4336191.526 -11144420.221 22543408.150 10 0 60149 37800.00000 0 -2600766.515 -13244382.206 21654939.471 10 0 60149 38700.00000 0 -1102847.090 -15356551.365 20346357.668 10 0 60149 39600.00000 0 137557.057 -17416369.330 18642943.076 10 0 60149 40500.00000 0 1112872.684 -19358227.053 16577645.462 10 0 60149 41400.00000 0 1828045.535 -21118099.501 14190455.863 10 0 60149 42300.00000 0 2300091.237 -22636135.462 11527640.518 10 0 60149 43200.00000 0 2557133.598 -23859094.355 8640850.683 10 0 60149 44100.00000 0 2636970.899 -24742527.806 5586124.835 10 0 60149 45000.00000 0 2585230.819 -25252613.903 2422802.177 10 0 60149 45900.00000 0 2453192.256 -25367566.295 -787631.535 10 0 60149 46800.00000 0 2295366.679 -25078557.926 -3982743.201 10 0 60149 47700.00000 0 2166942.165 -24390119.547 -7100372.656 10 0 60149 48600.00000 0 2121199.381 -23319995.329 -10079849.485 10 0 60149 49500.00000 0 2207010.144 -21898460.934 -12863181.787 10 0 60149 50400.00000 0 2466525.838 -20167132.278 -15396192.751 10 0 60149 51300.00000 0 2933154.894 -18177314.832 -17629582.078 10 0 60149 52200.00000 0 3629916.225 -15987962.805 -19519890.957 10 0 60149 53100.00000 0 4568239.433 -13663334.027 -21030351.334 10 0 60149 54000.00000 0 5747263.546 -11270439.029 -22131602.808 10 0 60149 54900.00000 0 7153664.814 -8876391.292 -22802263.244 10 0 60149 55800.00000 0 8762021.591 -6545769.558 -23029342.279 10 0 60149 56700.00000 0 10535701.649 -4338102.247 -22808490.028 10 0 60149 57600.00000 0 12428235.181 -2305578.562 -22144076.602 10 0 60149 58500.00000 0 14385116.291 -491081.128 -21049101.328 10 0 60149 59400.00000 0 16345957.772 1073378.775 -19544933.830 10 0 60149 60300.00000 0 18246909.147 2367759.391 -17660892.315 10 0 60149 61200.00000 0 20023236.841 3384575.729 -15433667.584 10 0 60149 62100.00000 0 21611958.562 4128953.103 -12906604.161 10 0 60149 63000.00000 0 22954421.722 4618146.592 -10128852.759 10 0 60149 63900.00000 0 23998717.959 4880548.472 -7154410.806 10 0 60149 64800.00000 0 24701832.826 4954227.171 -4041069.938 10 0 60149 65700.00000 0 25031440.802 4885060.886 -849291.187 10 0 60149 66600.00000 0 24967270.698 4724545.941 2358969.958 10 0 60149 67500.00000 0 24501984.640 4527373.489 5521465.586 10 0 60149 68400.00000 0 23641534.242 4348877.648 8576860.982 10 0 60149 69300.00000 0 22404979.463 4242463.387 11465920.433 10 0 60149 70200.00000 0 20823778.100 4257122.978 14132650.366 10 0 60149 71100.00000 0 18940575.848 4435145.929 16525378.083 10 0 60149 72000.00000 0 16807547.496 4810118.906 18597745.730 10 0 60149 72900.00000 0 14484358.254 5405299.909 20309601.004 10 0 60149 73800.00000 0 12035829.663 6232435.187 21627768.225 10 0 60149 74700.00000 0 9529406.514 7291068.948 22526685.640 10 0 60149 75600.00000 0 7032529.124 8568375.421 22988897.420 10 0 60149 76500.00000 0 4610018.998 10039521.282 23005391.373 10 0 60149 77400.00000 0 2321585.288 11668544.488 22575776.075 10 0 60149 78300.00000 0 219554.381 13409714.235 21708293.962 10 0 60149 79200.00000 0 -1653084.179 15209316.846 20419669.681 10 0 60149 80100.00000 0 -3264235.082 17007794.506 18734795.897 10 0 60149 81000.00000 0 -4593793.913 18742148.961 16686261.668 10 0 60149 81900.00000 0 -5634237.909 20348510.835 14313731.362 10 0 60149 82800.00000 0 -6390686.498 21764767.843 11663185.030 10 0 60149 83700.00000 0 -6880429.379 22933142.179 8786033.940 10 0 60149 84600.00000 0 -7131942.196 23802608.893 5738127.584 10 0 60149 85500.00000 0 -7183431.433 24331053.181 2578671.027 99